• In Uzbekistan
  • List of Countries
  • For 7 days
  • Water Temperature
  • Satellite Maps
  • Weather Map
  • Weather Widgets
  • user-avatar
    Login

    Hourly Weather Novonykanorivka

    Today, 18 December, Monday

    Time Temperature Precipitation Wind Pressure Humidity
    00:00 +5°C° 0.2 mm 6 mps 751 mmHg 84%
    01:00 +5°C° 0.1 mm 6 mps 751 mmHg 84%
    02:00 +4°C° 0.1 mm 6 mps 751 mmHg 84%
    03:00 +4°C° 0 mm 6 mps 751 mmHg 85%
    04:00 +4°C° 0.1 mm 6 mps 750 mmHg 86%
    05:00 +3°C° 0.1 mm 6 mps 750 mmHg 87%
    06:00 +3°C° 0.1 mm 7 mps 750 mmHg 87%
    07:00 +3°C° 0.3 mm 7 mps 750 mmHg 88%
    08:00 +3°C° 0.3 mm 7 mps 749 mmHg 88%
    09:00 +4°C° 0 mm 7 mps 750 mmHg 88%
    10:00 +4°C° 1.4 mm 7 mps 749 mmHg 88%
    11:00 +4°C° 1.4 mm 8 mps 749 mmHg 88%
    12:00 +4°C° 1.4 mm 8 mps 749 mmHg 88%
    13:00 +4°C° 2.1 mm 8 mps 749 mmHg 87%
    14:00 +5°C° 2.1 mm 8 mps 748 mmHg 87%
    15:00 +5°C° 0 mm 7 mps 748 mmHg 85%
    16:00 +5°C° 0.2 mm 7 mps 748 mmHg 84%
    17:00 +6°C° 0.2 mm 7 mps 748 mmHg 83%
    18:00 +6°C° 0.2 mm 7 mps 748 mmHg 82%
    19:00 +6°C° 0 mm 7 mps 749 mmHg 82%
    20:00 +5°C° 0 mm 6 mps 749 mmHg 82%
    21:00 +5°C° 0 mm 6 mps 749 mmHg 82%
    22:00 +4°C° 0 mm 6 mps 750 mmHg 81%
    23:00 +5°C° 0 mm 5 mps 750 mmHg 80%

    Tomorrow, 19 December, Tuesday

    Time Temperature Precipitation Wind Pressure Humidity
    00:00 +3°C° 0 mm 5 mps 750 mmHg 78%
    01:00 +3°C° 0 mm 5 mps 750 mmHg 79%
    02:00 +3°C° 0 mm 4 mps 751 mmHg 79%
    03:00 +3°C° 0 mm 4 mps 751 mmHg 80%
    04:00 +1°C° 0 mm 4 mps 751 mmHg 80%
    05:00 +1°C° 0 mm 4 mps 751 mmHg 80%
    06:00 +2°C° 0 mm 3 mps 752 mmHg 81%
    07:00 +1°C° 0 mm 3 mps 752 mmHg 80%
    08:00 +1°C° 0 mm 3 mps 752 mmHg 80%
    09:00 +1°C° 0 mm 3 mps 753 mmHg 79%
    10:00 +1°C° 0 mm 3 mps 753 mmHg 76%
    11:00 +1°C° 0 mm 3 mps 753 mmHg 74%
    12:00 0°C° 0 mm 4 mps 753 mmHg 71%
    13:00 0°C° 0 mm 4 mps 754 mmHg 70%
    14:00 0°C° 0 mm 4 mps 754 mmHg 69%
    15:00 0°C° 0 mm 4 mps 754 mmHg 68%
    16:00 +1°C° 0 mm 3 mps 754 mmHg 71%
    17:00 0°C° 0 mm 3 mps 755 mmHg 74%
    18:00 +1°C° 0 mm 2 mps 755 mmHg 77%
    19:00 -1°C° 0 mm 2 mps 755 mmHg 77%
    20:00 -1°C° 0 mm 2 mps 755 mmHg 78%
    21:00 -1°C° 0 mm 2 mps 756 mmHg 79%
    22:00 -1°C° 0 mm 2 mps 756 mmHg 79%
    23:00 -1°C° 0 mm 2 mps 756 mmHg 79%

    Day after tomorrow, 20 December, Wednesday

    Time Temperature Precipitation Wind Pressure Humidity
    00:00 -1°C° 0 mm 2 mps 756 mmHg 80%
    01:00 -1°C° 0 mm 2 mps 757 mmHg 80%
    02:00 -1°C° 0 mm 2 mps 757 mmHg 81%
    03:00 -1°C° 0 mm 2 mps 758 mmHg 82%
    04:00 -1°C° 0 mm 2 mps 758 mmHg 84%
    05:00 -1°C° 0 mm 2 mps 758 mmHg 86%
    06:00 -2°C° 0 mm 2 mps 758 mmHg 87%
    07:00 -2°C° 0 mm 2 mps 758 mmHg 87%
    08:00 -1°C° 0 mm 2 mps 759 mmHg 87%
    09:00 -1°C° 0 mm 2 mps 759 mmHg 87%
    10:00 -1°C° 0 mm 2 mps 759 mmHg 82%
    11:00 +2°C° 0 mm 1 mps 760 mmHg 77%
    12:00 +2°C° 0 mm 1 mps 760 mmHg 72%
    13:00 +3°C° 0.1 mm 1 mps 760 mmHg 73%
    14:00 +3°C° 0.1 mm 1 mps 760 mmHg 73%
    15:00 +3°C° 0.1 mm 1 mps 760 mmHg 73%
    16:00 +2°C° 0 mm 1 mps 760 mmHg 76%
    17:00 +2°C° 0 mm 1 mps 760 mmHg 79%
    18:00 +2°C° 0 mm 1 mps 761 mmHg 83%
    19:00 +2°C° 0.1 mm 1 mps 761 mmHg 84%
    20:00 +2°C° 0.1 mm 1 mps 761 mmHg 85%
    21:00 +2°C° 0.1 mm 1 mps 761 mmHg 87%
    22:00 +1°C° 0.1 mm 1 mps 761 mmHg 88%
    23:00 +1°C° 0.1 mm 1 mps 761 mmHg 89%

    21 December, Thursday

    Time Temperature Precipitation Wind Pressure Humidity
    00:00 +1°C° 0.1 mm 1 mps 761 mmHg 91%
    01:00 -1°C° 0.1 mm 2 mps 761 mmHg 92%
    02:00 -1°C° 0.1 mm 2 mps 761 mmHg 93%
    03:00 -1°C° 0.1 mm 2 mps 761 mmHg 94%
    04:00 -1°C° 0.1 mm 2 mps 761 mmHg 93%
    05:00 -1°C° 0.1 mm 2 mps 761 mmHg 93%
    06:00 -2°C° 0.1 mm 2 mps 761 mmHg 93%
    07:00 -2°C° 0 mm 2 mps 761 mmHg 92%
    08:00 -2°C° 0 mm 3 mps 761 mmHg 92%
    09:00 -2°C° 0 mm 3 mps 761 mmHg 91%
    10:00 -2°C° 0 mm 3 mps 761 mmHg 87%
    11:00 -1°C° 0 mm 3 mps 762 mmHg 83%
    12:00 0°C° 0 mm 3 mps 762 mmHg 78%
    13:00 0°C° 0 mm 3 mps 761 mmHg 77%
    14:00 0°C° 0 mm 3 mps 761 mmHg 75%
    15:00 0°C° 0 mm 3 mps 761 mmHg 74%
    16:00 -1°C° 0 mm 3 mps 761 mmHg 75%
    17:00 -2°C° 0 mm 2 mps 761 mmHg 77%
    18:00 -2°C° 0 mm 2 mps 761 mmHg 78%
    19:00 -2°C° 0 mm 2 mps 761 mmHg 76%
    20:00 -3°C° 0 mm 2 mps 761 mmHg 75%
    21:00 -3°C° 0 mm 2 mps 761 mmHg 74%
    22:00 -3°C° 0 mm 2 mps 760 mmHg 73%
    23:00 -3°C° 0 mm 2 mps 760 mmHg 72%

    22 December, Friday

    Time Temperature Precipitation Wind Pressure Humidity
    00:00 -3°C° 0 mm 2 mps 760 mmHg 72%
    01:00 -3°C° 0 mm 2 mps 759 mmHg 72%
    02:00 -3°C° 0 mm 2 mps 759 mmHg 72%
    03:00 -3°C° 0 mm 2 mps 759 mmHg 72%
    04:00 -3°C° 0 mm 2 mps 758 mmHg 74%
    05:00 -3°C° 0 mm 2 mps 757 mmHg 76%
    06:00 -3°C° 0 mm 2 mps 757 mmHg 78%
    07:00 -3°C° 0 mm 2 mps 757 mmHg 79%
    08:00 -3°C° 0 mm 2 mps 757 mmHg 80%
    09:00 -3°C° 0 mm 2 mps 756 mmHg 82%
    10:00 -3°C° 0 mm 2 mps 756 mmHg 79%
    11:00 -2°C° 0 mm 3 mps 756 mmHg 77%
    12:00 -2°C° 0 mm 3 mps 755 mmHg 74%
    13:00 -2°C° 0 mm 3 mps 755 mmHg 73%
    14:00 -2°C° 0 mm 3 mps 754 mmHg 71%
    15:00 -2°C° 0 mm 3 mps 754 mmHg 69%
    16:00 -2°C° 0 mm 2 mps 754 mmHg 72%
    17:00 -3°C° 0 mm 2 mps 754 mmHg 75%
    18:00 -3°C° 0 mm 2 mps 753 mmHg 78%
    19:00 -4°C° 0 mm 3 mps 753 mmHg 77%
    20:00 -4°C° 0 mm 3 mps 753 mmHg 77%
    21:00 -4°C° 0 mm 4 mps 753 mmHg 76%
    22:00 -4°C° 0 mm 4 mps 752 mmHg 76%
    23:00 -4°C° 0 mm 4 mps 752 mmHg 75%

    23 December, Saturday

    Time Temperature Precipitation Wind Pressure Humidity
    00:00 -4°C° 0 mm 4 mps 752 mmHg 75%
    01:00 -4°C° 0 mm 4 mps 751 mmHg 77%
    02:00 -4°C° 0 mm 4 mps 751 mmHg 78%
    03:00 -4°C° 0 mm 4 mps 750 mmHg 79%
    04:00 -4°C° 0 mm 4 mps 750 mmHg 80%
    05:00 -4°C° 0 mm 4 mps 750 mmHg 82%
    06:00 -4°C° 0 mm 4 mps 750 mmHg 83%
    07:00 -4°C° 0 mm 4 mps 750 mmHg 84%
    08:00 -4°C° 0 mm 4 mps 749 mmHg 84%
    09:00 -4°C° 0 mm 4 mps 749 mmHg 85%
    10:00 -3°C° 0.1 mm 4 mps 749 mmHg 83%
    11:00 -3°C° 0.1 mm 4 mps 749 mmHg 81%
    12:00 -2°C° 0.1 mm 4 mps 749 mmHg 79%
    13:00 -2°C° 0 mm 4 mps 749 mmHg 79%
    14:00 -2°C° 0 mm 4 mps 749 mmHg 79%
    15:00 -1°C° 0 mm 3 mps 748 mmHg 79%
    16:00 -1°C° 0 mm 3 mps 748 mmHg 81%
    17:00 -1°C° 0 mm 2 mps 748 mmHg 84%
    18:00 -1°C° 0 mm 2 mps 748 mmHg 86%
    19:00 +1°C° 0 mm 1 mps 748 mmHg 87%
    20:00 +1°C° 0 mm 1 mps 748 mmHg 87%
    21:00 +1°C° 0 mm 1 mps 748 mmHg 88%
    22:00 0°C° 0 mm 1 mps 748 mmHg 88%
    23:00 0°C° 0 mm 1 mps 748 mmHg 88%
    Show more